Location: Larkspur
(54.4391°N, 113.7691°W)
Time: 01:03:10
(UTC+00:00)

YUBILEINY - Pass Details

Date: 08 December 2023
Orbit: 1479 x 1508 km, 82.5° (Epoch: 03 March)

Event Time Altitude Azimuth Distance (km) Brightness Sun altitude
Rises 03:28:17 0° 347° (NNW) 4,634 ? -35.8°
Reaches altitude 10° 03:31:11 10° 348° (NNW) 3,647 ? -36.2°
Enters shadow 03:38:37 68° 353° (N) 1,582 ? -37.3°
